Location: Unspecified
(41.9031°N, 12.4386°E)
Time: 03:36:54
(UTC+02:00)

ISS - Pass Details

Date: 10 July 2020
Orbit: 417 x 421 km, 51.6° (Epoch: 08 July)

Event Time Altitude Azimuth Distance (km) Brightness Sun altitude
Rises 05:02:06 0° 308° (NW) 2,363 -0.1 -7.3°
Reaches altitude 10° 05:04:29 10° 323° (NW) 1,498 -0.9 -7.0°
Maximum altitude 05:07:16 23° 19° (NNE) 932 -1.2 -6.6°
Drops below altitude 10° 05:10:02 10° 74° (ENE) 1,495 0.4 -6.1°
Sets 05:12:24 0° 90° (E) 2,356 1.0 -5.8°
